COSMOS 1275 DEB

Satellite information

Favourite Embed

Satellite Type and Status

DEBRISIN ORBIT

Key statistics

Satellite COSMOS 1275 DEB at a glance.

Uptime

16044

Days in orbit

Revolutions

≈ 14.2

Per day

Orbit

LEO

Low Earth Orbit

Inclination

82.8

Latest

Satellite identification and parameters

Extended collection of information and parameters for COSMOS 1275 DEB.

Object identification

Identified? True

Debris? True

Object name: COSMOS 1275 DEB

International designator: 1981-053JB

Object number (NORAD): 14406

Object ID (CCSDS): 14406

Country: COMMONWEALTH OF INDEPENDENT STATES (CIS)

Current information (Y/N): Y

RCS size: SMALL

Orbital parameters

Period: 101.463 minutes

Inclination: 82.8411 deg

SMA: 7206.077 km

Apoapsis: 842.364 km

Periapsis: 813.521 km

RAAN: 353.6682 deg

Eccentricy: 0.0020013

Argument of periapsis: 349.142 deg

Mean anomaly: 75.2541 deg

Mean motion: 14.19235263 rev/day

Mean motion (dot): 0.00003633 rev/day2

B* drag term: 0.0017228 1/REarth

Two-line elements (TLE)

Creation date: May 8, 2025, 3:01 a.m.

Reference frame: TEME

Reference center: EARTH

Epoch: May 7, 2025, 4:35 p.m. UTC

TLE line 0: 0 COSMOS 1275 DEB

TLE line 1: 1 14406U 81053JB 25127.69115265 .00003633 00000-0 17228-2 0 9991

TLE line 2: 2 14406 82.8411 353.6682 0020013 349.1420 75.2541 14.19235263164240

Live tracking on map

Real-time ground track for satellite COSMOS 1275 DEB.

In-orbit conjunctions

A list of the most updated potential collisions computed for object COSMOS 1275 DEB.

Target Orbit TCA Probability of collision Miss distance Type
NOAA 16 DEB SSO 2025-05-03 09:53:26 0.0002320304 75.0 (m) DEBRIS
COSMOS 1275 DEB LEO 2025-03-24 08:49:45 0.0002280419 62.0 (m) DEBRIS
SL-16 R/B LEO 2025-01-28 11:13:43 0.0001896602 227.0 (m) ROCKET BODY
COBE DEB SSO 2024-11-06 09:44:58 0.001117488 25.0 (m) DEBRIS

Associated space launch

Navigation satellite providing location information for the Tsiklon-B navigation system

COSMOS 1275 DEB was lifted into orbit during the mission ‘Kosmos-3M | Parus 27’, on board a Kosmos-3M space rocket.

The launch took place on June 4, 1981, 3:41 p.m. from 132/2.

For more information about the launch, click the button.

Launch to space Kosmos-3M | Parus 27
Kosmos-3M | Parus 27

Agency: N/A

Status: Launch Successful

Launch date: June 4, 1981, 3:41 p.m. UTC

Rocket: Kosmos-3M

Launch pad: 132/2

Location: Plesetsk Cosmodrome, Russian Federation

...

Latest news about this satellite

There are no fresh news available about this satellite. Check back as we update our databases every day.


Newsletter sign-up

Weekly statistics, charts and insights to help you stay on top of the space industry.